Time,TemperatureF,DewpointF,PressureIn,WindDirection,WindDirectionDegrees,WindSpeedMPH,WindSpeedGustMPH,Humidity,HourlyPrecipIn,Conditions,Clouds,dailyrainin,SolarRadiationWatts/m^2,SoftwareType,DateUTC
2013-01-23 00:00:00,21.3,12.1,30.21,NW,326,0.0,0.0,67,0.00,,,0.00,0.00,VWS V14.01,2013-01-23 05:00:00,
2013-01-23 00:03:00,21.1,12.2,30.21,NW,326,0.0,0.0,68,0.00,,,0.00,0.00,VWS V14.01,2013-01-23 05:03:00,
2013-01-23 00:08:00,20.8,11.9,30.21,NW,326,0.0,0.0,68,0.00,,,0.00,0.00,VWS V14.01,2013-01-23 05:08:00,
2013-01-23 00:13:00,20.6,11.7,30.21,NW,326,0.0,0.0,68,0.00,,,0.00,0.00,VWS V14.01,2013-01-23 05:13:00,
2013-01-23 00:18:00,20.3,11.4,30.20,NW,326,0.0,0.0,68,0.00,,,0.00,0.00,VWS V14.01,2013-01-23 05:18:00,
2013-01-23 00:23:00,20.2,11.4,30.20,NW,325,0.0,0.0,68,0.00,,,0.00,0.00,VWS V14.01,2013-01-23 05:23:00,
2013-01-23 00:28:00,20.0,11.1,30.20,NW,326,0.0,0.0,68,0.00,,,0.00,0.00,VWS V14.01,2013-01-23 05:28:00,
2013-01-23 00:33:00,19.9,11.1,30.21,NW,326,0.0,0.0,68,0.00,,,0.00,0.00,VWS V14.01,2013-01-23 05:33:00,
2013-01-23 00:38:00,19.9,11.1,30.21,NW,325,0.0,0.0,68,0.00,,,0.00,0.00,VWS V14.01,2013-01-23 05:38:00,
2013-01-23 00:43:00,19.9,10.7,30.21,NW,326,0.0,0.0,67,0.00,,,0.00,0.00,VWS V14.01,2013-01-23 05:43:00,
2013-01-23 00:48:00,19.9,11.1,30.21,NW,325,0.0,0.0,68,0.00,,,0.00,0.00,VWS V14.01,2013-01-23 05:48:00,
2013-01-23 00:53:00,20.0,11.8,30.21,NW,326,0.0,0.0,70,0.00,,,0.00,0.00,VWS V14.01,2013-01-23 05:53:00,
2013-01-23 00:58:00,20.0,12.4,30.21,NW,325,0.0,0.0,72,0.00,,,0.00,0.00,VWS V14.01,2013-01-23 05:58:00,
2013-01-23 01:03:00,20.0,12.4,30.21,NW,326,0.0,0.0,72,0.00,,,0.00,0.00,VWS V14.01,2013-01-23 06:03:00,
2013-01-23 01:08:00,19.9,12.3,30.21,NW,326,0.0,0.0,72,0.00,,,0.00,0.00,VWS V14.01,2013-01-23 06:08:00,
2013-01-23 01:13:00,19.7,12.8,30.21,NW,326,0.0,0.0,74,0.00,,,0.00,0.00,VWS V14.01,2013-01-23 06:13:00,
2013-01-23 01:18:00,19.7,13.1,30.21,NW,325,0.0,0.0,75,0.00,,,0.00,0.00,VWS V14.01,2013-01-23 06:18:00,
2013-01-23 01:23:00,19.5,12.6,30.21,NW,325,0.0,0.0,74,0.00,,,0.00,0.00,VWS V14.01,2013-01-23 06:23:00,
2013-01-23 01:28:00,19.5,12.9,30.21,NW,326,0.0,0.0,75,0.00,,,0.00,0.00,VWS V14.01,2013-01-23 06:28:00,
2013-01-23 01:33:00,19.4,12.5,30.21,NW,326,0.0,0.0,74,0.00,,,0.00,0.00,VWS V14.01,2013-01-23 06:33:00,
2013-01-23 01:38:00,19.4,12.8,30.21,NW,326,0.0,0.0,75,0.00,,,0.00,0.00,VWS V14.01,2013-01-23 06:38:00,
2013-01-23 01:43:00,19.4,12.8,30.21,NW,326,0.0,0.0,75,0.00,,,0.00,0.00,VWS V14.01,2013-01-23 06:43:00,
2013-01-23 01:48:00,19.4,12.8,30.21,NW,326,0.0,0.0,75,0.00,,,0.00,0.00,VWS V14.01,2013-01-23 06:48:00,
2013-01-23 01:53:00,19.4,13.1,30.21,NW,326,0.0,0.0,76,0.00,,,0.00,0.00,VWS V14.01,2013-01-23 06:53:00,
2013-01-23 01:58:00,19.4,13.1,30.21,NW,326,0.0,0.0,76,0.00,,,0.00,0.00,VWS V14.01,2013-01-23 06:58:00,
2013-01-23 02:03:00,19.4,13.1,30.21,NW,326,0.0,0.0,76,0.00,,,0.00,0.00,VWS V14.01,2013-01-23 07:03:00,
2013-01-23 02:08:00,19.4,13.1,30.21,NW,326,0.0,0.0,76,0.00,,,0.00,0.00,VWS V14.01,2013-01-23 07:08:00,
2013-01-23 02:13:00,19.4,13.4,30.21,NW,325,0.0,0.0,77,0.00,,,0.00,0.00,VWS V14.01,2013-01-23 07:13:00,
2013-01-23 02:18:00,19.2,13.2,30.22,NW,326,0.0,0.0,77,0.00,,,0.00,0.00,VWS V14.01,2013-01-23 07:18:00,
2013-01-23 02:23:00,19.2,13.2,30.22,NW,326,0.0,0.0,77,0.00,,,0.00,0.00,VWS V14.01,2013-01-23 07:23:00,
2013-01-23 02:28:00,19.2,13.2,30.22,NW,326,0.0,0.0,77,0.00,,,0.00,0.00,VWS V14.01,2013-01-23 07:28:00,
2013-01-23 02:33:00,19.4,13.4,30.23,NW,326,0.0,0.0,77,0.00,,,0.00,0.00,VWS V14.01,2013-01-23 07:33:00,
2013-01-23 02:38:00,19.5,13.5,30.23,NW,326,0.0,0.0,77,0.00,,,0.00,0.00,VWS V14.01,2013-01-23 07:38:00,
2013-01-23 02:43:00,19.5,13.2,30.23,NW,325,0.0,0.0,76,0.00,,,0.00,0.00,VWS V14.01,2013-01-23 07:43:00,
2013-01-23 02:48:00,19.4,13.1,30.23,NW,325,0.0,0.0,76,0.00,,,0.00,0.00,VWS V14.01,2013-01-23 07:48:00,
2013-01-23 02:53:00,19.4,13.1,30.23,NW,326,0.0,0.0,76,0.00,,,0.00,0.00,VWS V14.01,2013-01-23 07:53:00,
2013-01-23 02:58:00,19.4,13.1,30.23,NW,326,0.0,0.0,76,0.00,,,0.00,0.00,VWS V14.01,2013-01-23 07:58:00,
2013-01-23 03:03:00,19.2,12.6,30.23,NW,326,0.0,0.0,75,0.00,,,0.00,0.00,VWS V14.01,2013-01-23 08:03:00,
2013-01-23 03:08:00,19.2,12.6,30.23,NW,326,0.0,0.0,75,0.00,,,0.00,0.00,VWS V14.01,2013-01-23 08:08:00,
2013-01-23 03:13:00,19.1,12.5,30.23,NW,326,0.0,0.0,75,0.00,,,0.00,0.00,VWS V14.01,2013-01-23 08:13:00,
2013-01-23 03:18:00,18.9,12.3,30.23,NW,326,0.0,0.0,75,0.00,,,0.00,0.00,VWS V14.01,2013-01-23 08:18:00,
2013-01-23 03:23:00,18.9,12.3,30.23,NW,325,0.0,0.0,75,0.00,,,0.00,0.00,VWS V14.01,2013-01-23 08:23:00,
2013-01-23 03:28:00,18.9,12.3,30.23,NW,326,0.0,0.0,75,0.00,,,0.00,0.00,VWS V14.01,2013-01-23 08:28:00,
2013-01-23 03:33:00,18.8,12.5,30.23,NW,326,0.0,0.0,76,0.00,,,0.00,0.00,VWS V14.01,2013-01-23 08:33:00,
2013-01-23 03:38:00,18.9,12.9,30.23,NW,326,0.0,0.0,77,0.00,,,0.00,0.00,VWS V14.01,2013-01-23 08:38:00,
2013-01-23 03:43:00,18.9,13.2,30.23,NW,326,0.0,0.0,78,0.00,,,0.00,0.00,VWS V14.01,2013-01-23 08:43:00,
2013-01-23 03:48:00,18.9,13.5,30.23,NW,326,0.0,0.0,79,0.00,,,0.00,0.00,VWS V14.01,2013-01-23 08:48:00,
2013-01-23 03:53:00,18.9,13.5,30.23,NW,326,0.0,0.0,79,0.00,,,0.00,0.00,VWS V14.01,2013-01-23 08:53:00,
2013-01-23 03:58:00,18.9,13.5,30.23,NW,326,0.0,0.0,79,0.00,,,0.00,0.00,VWS V14.01,2013-01-23 08:58:00,
2013-01-23 04:03:00,18.9,13.5,30.23,NW,325,0.0,0.0,79,0.00,,,0.00,0.00,VWS V14.01,2013-01-23 09:03:00,
2013-01-23 04:08:00,18.8,13.4,30.23,NW,326,0.0,0.0,79,0.00,,,0.00,0.00,VWS V14.01,2013-01-23 09:08:00,
2013-01-23 04:13:00,18.6,13.2,30.23,NW,326,0.0,0.0,79,0.00,,,0.00,0.00,VWS V14.01,2013-01-23 09:13:00,
2013-01-23 04:18:00,18.6,13.2,30.23,NW,326,0.0,0.0,79,0.00,,,0.00,0.00,VWS V14.01,2013-01-23 09:18:00,
2013-01-23 04:23:00,18.4,12.7,30.23,NW,326,0.0,0.0,78,0.00,,,0.00,0.00,VWS V14.01,2013-01-23 09:23:00,
2013-01-23 04:28:00,18.3,12.6,30.23,NW,326,0.0,0.0,78,0.00,,,0.00,0.00,VWS V14.01,2013-01-23 09:28:00,
2013-01-23 04:33:00,18.1,12.7,30.23,NW,326,0.0,0.0,79,0.00,,,0.00,0.00,VWS V14.01,2013-01-23 09:33:00,
2013-01-23 04:38:00,18.1,13.0,30.23,NW,326,0.0,0.0,80,0.00,,,0.00,0.00,VWS V14.01,2013-01-23 09:38:00,
2013-01-23 04:43:00,18.1,13.0,30.23,NW,326,0.0,0.0,80,0.00,,,0.00,0.00,VWS V14.01,2013-01-23 09:43:00,
2013-01-23 04:48:00,18.1,13.0,30.24,NW,326,0.0,0.0,80,0.00,,,0.00,0.00,VWS V14.01,2013-01-23 09:48:00,
2013-01-23 04:53:00,18.0,12.9,30.24,NW,326,0.0,0.0,80,0.00,,,0.00,0.00,VWS V14.01,2013-01-23 09:53:00,
2013-01-23 04:58:00,17.8,12.7,30.24,NW,326,0.0,0.0,80,0.00,,,0.00,0.00,VWS V14.01,2013-01-23 09:58:00,
2013-01-23 05:03:00,17.8,13.0,30.24,NW,326,0.0,0.0,81,0.00,,,0.00,0.00,VWS V14.01,2013-01-23 10:03:00,
2013-01-23 05:08:00,17.7,12.9,30.24,NW,325,0.0,0.0,81,0.00,,,0.00,0.00,VWS V14.01,2013-01-23 10:08:00,
2013-01-23 05:13:00,17.7,12.9,30.24,NW,326,0.0,0.0,81,0.00,,,0.00,0.00,VWS V14.01,2013-01-23 10:13:00,
2013-01-23 05:18:00,17.7,13.1,30.25,NW,326,0.0,0.0,82,0.00,,,0.00,0.00,VWS V14.01,2013-01-23 10:18:00,
2013-01-23 05:23:00,17.7,13.1,30.25,NW,326,0.0,0.0,82,0.00,,,0.00,0.00,VWS V14.01,2013-01-23 10:23:00,
2013-01-23 05:28:00,17.5,12.9,30.25,NW,326,0.0,0.0,82,0.00,,,0.00,0.00,VWS V14.01,2013-01-23 10:28:00,
2013-01-23 05:33:00,17.7,13.1,30.25,NW,326,0.0,0.0,82,0.00,,,0.00,0.00,VWS V14.01,2013-01-23 10:33:00,
2013-01-23 05:38:00,17.7,13.4,30.25,NW,326,0.0,0.0,83,0.00,,,0.00,0.00,VWS V14.01,2013-01-23 10:38:00,
2013-01-23 05:43:00,17.8,13.5,30.25,NW,326,0.0,0.0,83,0.00,,,0.00,0.00,VWS V14.01,2013-01-23 10:43:00,
2013-01-23 05:48:00,17.8,13.5,30.25,NW,326,0.0,0.0,83,0.00,,,0.00,0.00,VWS V14.01,2013-01-23 10:48:00,
2013-01-23 05:53:00,17.8,13.5,30.25,NW,325,0.0,0.0,83,0.00,,,0.00,0.00,VWS V14.01,2013-01-23 10:53:00,
2013-01-23 05:58:00,17.7,13.4,30.25,NW,326,0.0,0.0,83,0.00,,,0.00,0.00,VWS V14.01,2013-01-23 10:58:00,
2013-01-23 06:03:00,17.7,13.4,30.25,NW,326,0.0,0.0,83,0.00,,,0.00,0.00,VWS V14.01,2013-01-23 11:03:00,
2013-01-23 06:09:00,17.5,13.5,30.25,NW,326,0.0,0.0,84,0.00,,,0.00,0.00,VWS V14.01,2013-01-23 11:09:00,
2013-01-23 06:14:00,17.5,13.5,30.25,NW,326,0.0,0.0,84,0.00,,,0.00,0.00,VWS V14.01,2013-01-23 11:14:00,
2013-01-23 06:19:00,17.3,13.3,30.26,NW,326,0.0,0.0,84,0.00,,,0.00,0.00,VWS V14.01,2013-01-23 11:19:00,
2013-01-23 06:24:00,17.3,13.3,30.26,NW,326,0.0,0.0,84,0.00,,,0.00,0.00,VWS V14.01,2013-01-23 11:24:00,
2013-01-23 06:29:00,17.3,13.3,30.26,NW,326,0.0,0.0,84,0.00,,,0.00,0.00,VWS V14.01,2013-01-23 11:29:00,
2013-01-23 06:34:00,17.3,13.3,30.25,NW,326,0.0,0.0,84,0.00,,,0.00,0.00,VWS V14.01,2013-01-23 11:34:00,
2013-01-23 06:39:00,17.3,13.3,30.25,NW,326,0.0,0.0,84,0.00,,,0.00,0.00,VWS V14.01,2013-01-23 11:39:00,
2013-01-23 06:44:00,17.2,13.2,30.25,NW,325,0.0,0.0,84,0.00,,,0.00,0.00,VWS V14.01,2013-01-23 11:44:00,
2013-01-23 06:49:00,17.2,13.2,30.26,NW,326,0.0,0.0,84,0.00,,,0.00,0.00,VWS V14.01,2013-01-23 11:49:00,
2013-01-23 06:54:00,17.2,13.5,30.26,NW,326,0.0,0.0,85,0.00,,,0.00,0.00,VWS V14.01,2013-01-23 11:54:00,
2013-01-23 06:59:00,17.2,13.5,30.26,NW,326,0.0,0.0,85,0.00,,,0.00,0.00,VWS V14.01,2013-01-23 11:59:00,
2013-01-23 07:04:00,17.2,13.5,30.27,NW,326,0.0,0.0,85,0.00,,,0.00,0.00,VWS V14.01,2013-01-23 12:04:00,
2013-01-23 07:09:00,17.2,13.5,30.27,NW,326,0.0,0.0,85,0.00,,,0.00,0.00,VWS V14.01,2013-01-23 12:09:00,
2013-01-23 07:14:00,17.2,13.5,30.27,NW,326,0.0,0.0,85,0.00,,,0.00,0.00,VWS V14.01,2013-01-23 12:14:00,
2013-01-23 07:19:00,17.2,13.5,30.27,NW,326,0.0,0.0,85,0.00,,,0.00,0.00,VWS V14.01,2013-01-23 12:19:00,
2013-01-23 07:24:00,17.2,13.7,30.27,NW,326,0.0,0.0,86,0.00,,,0.00,5.00,VWS V14.01,2013-01-23 12:24:00,
2013-01-23 07:29:00,17.3,13.8,30.27,NW,325,0.0,0.0,86,0.00,,,0.00,7.00,VWS V14.01,2013-01-23 12:29:00,
2013-01-23 07:34:00,17.3,13.8,30.28,NW,325,0.0,0.0,86,0.00,,,0.00,9.00,VWS V14.01,2013-01-23 12:34:00,
2013-01-23 07:39:00,17.3,13.8,30.28,NW,326,0.0,0.0,86,0.00,,,0.00,11.00,VWS V14.01,2013-01-23 12:39:00,
2013-01-23 07:44:00,17.5,14.0,30.28,NW,326,0.0,0.0,86,0.00,,,0.00,12.00,VWS V14.01,2013-01-23 12:44:00,
2013-01-23 07:49:00,17.7,14.2,30.28,NW,326,0.0,0.0,86,0.00,,,0.00,14.00,VWS V14.01,2013-01-23 12:49:00,
2013-01-23 07:54:00,18.0,14.5,30.28,NW,326,0.0,0.0,86,0.00,,,0.00,16.00,VWS V14.01,2013-01-23 12:54:00,
2013-01-23 07:59:00,18.1,14.9,30.28,NW,326,0.0,0.0,87,0.00,,,0.00,21.00,VWS V14.01,2013-01-23 12:59:00,
2013-01-23 08:04:00,18.3,15.1,30.28,NW,326,0.0,0.0,87,0.00,,,0.00,19.00,VWS V14.01,2013-01-23 13:04:00,
2013-01-23 08:09:00,18.6,15.4,30.28,NW,326,0.0,0.0,87,0.00,,,0.00,19.00,VWS V14.01,2013-01-23 13:09:00,
2013-01-23 08:14:00,18.9,15.7,30.28,NW,326,0.0,0.0,87,0.00,,,0.00,21.00,VWS V14.01,2013-01-23 13:14:00,
2013-01-23 08:19:00,19.2,16.0,30.27,NW,326,0.0,0.0,87,0.00,,,0.00,23.00,VWS V14.01,2013-01-23 13:19:00,
2013-01-23 08:24:00,19.5,16.5,30.27,NW,326,0.0,0.0,88,0.00,,,0.00,23.00,VWS V14.01,2013-01-23 13:24:00,
2013-01-23 08:29:00,19.9,16.9,30.27,NW,326,0.0,0.0,88,0.00,,,0.00,25.00,VWS V14.01,2013-01-23 13:29:00,
2013-01-23 08:34:00,20.3,17.3,30.27,NW,325,0.0,0.0,88,0.00,,,0.00,25.00,VWS V14.01,2013-01-23 13:34:00,
2013-01-23 08:39:00,20.6,17.6,30.27,NW,326,0.0,0.0,88,0.00,,,0.00,26.00,VWS V14.01,2013-01-23 13:39:00,
2013-01-23 08:44:00,21.1,18.1,30.27,NW,326,0.0,0.0,88,0.00,,,0.00,188.00,VWS V14.01,2013-01-23 13:44:00,
2013-01-23 08:49:00,21.9,18.6,30.28,NW,326,0.0,0.0,87,0.00,,,0.00,211.00,VWS V14.01,2013-01-23 13:49:00,
2013-01-23 08:54:00,23.2,19.9,30.28,NW,326,0.0,0.0,87,0.00,,,0.00,255.00,VWS V14.01,2013-01-23 13:54:00,
2013-01-23 08:59:00,24.2,20.4,30.28,NW,326,0.0,0.0,85,0.00,,,0.00,243.00,VWS V14.01,2013-01-23 13:59:00,
2013-01-23 09:03:00,25.3,20.3,30.29,NW,326,0.0,0.0,81,0.00,,,0.00,250.00,VWS V14.01,2013-01-23 14:03:00,
2013-01-23 09:08:00,26.4,19.9,30.29,NW,326,0.0,0.0,76,0.00,,,0.00,264.00,VWS V14.01,2013-01-23 14:08:00,
2013-01-23 09:13:00,27.5,18.0,30.29,NW,326,0.0,0.0,67,0.00,,,0.00,272.00,VWS V14.01,2013-01-23 14:13:00,
2013-01-23 09:18:00,28.4,17.8,30.29,NW,326,0.0,0.0,64,0.00,,,0.00,292.00,VWS V14.01,2013-01-23 14:18:00,
2013-01-23 09:23:00,29.3,15.1,30.29,NW,326,0.0,0.0,55,0.00,,,0.00,311.00,VWS V14.01,2013-01-23 14:23:00,
2013-01-23 09:28:00,29.5,11.3,30.29,NE,47,0.0,0.0,46,0.00,,,0.00,334.00,VWS V14.01,2013-01-23 14:28:00,
2013-01-23 09:33:00,29.7,9.4,30.29,NE,47,0.0,0.0,42,0.00,,,0.00,346.00,VWS V14.01,2013-01-23 14:33:00,
2013-01-23 09:38:00,30.3,9.4,30.29,NE,47,0.0,0.0,41,0.00,,,0.00,359.00,VWS V14.01,2013-01-23 14:38:00,
2013-01-23 09:43:00,30.7,8.1,30.29,NNE,14,1.0,1.0,38,0.00,,,0.00,374.00,VWS V14.01,2013-01-23 14:43:00,
2013-01-23 09:48:00,31.0,6.6,30.29,North,358,0.0,3.0,35,0.00,,,0.00,383.00,VWS V14.01,2013-01-23 14:48:00,
2013-01-23 09:53:00,31.3,5.6,30.29,North,358,0.0,0.0,33,0.00,,,0.00,399.00,VWS V14.01,2013-01-23 14:53:00,
2013-01-23 09:58:00,31.8,6.0,30.29,North,358,0.0,0.0,33,0.00,,,0.00,411.00,VWS V14.01,2013-01-23 14:58:00,
2013-01-23 10:03:00,32.4,5.2,30.30,NNW,344,3.0,3.0,31,0.00,,,0.00,422.00,VWS V14.01,2013-01-23 15:03:00,
2013-01-23 10:08:00,32.7,4.7,30.30,NNW,348,0.0,0.0,30,0.00,,,0.00,434.00,VWS V14.01,2013-01-23 15:08:00,
2013-01-23 10:13:00,33.1,4.3,30.30,NW,317,4.0,5.0,29,0.00,,,0.00,446.00,VWS V14.01,2013-01-23 15:13:00,
2013-01-23 10:18:00,32.8,4.1,30.30,North,352,0.0,1.0,29,0.00,,,0.00,459.00,VWS V14.01,2013-01-23 15:18:00,
2013-01-23 10:23:00,32.5,3.0,30.30,North,7,6.0,6.0,28,0.00,,,0.00,469.00,VWS V14.01,2013-01-23 15:23:00,
2013-01-23 10:28:00,32.4,2.9,30.30,North,7,2.0,4.0,28,0.00,,,0.00,478.00,VWS V14.01,2013-01-23 15:28:00,
2013-01-23 10:33:00,32.2,2.0,30.30,North,0,0.0,0.0,27,0.00,,,0.00,489.00,VWS V14.01,2013-01-23 15:33:00,
2013-01-23 10:38:00,32.5,3.0,30.30,NE,37,1.0,3.0,28,0.00,,,0.00,497.00,VWS V14.01,2013-01-23 15:38:00,
2013-01-23 10:43:00,32.9,3.4,30.30,NNE,25,0.0,0.0,28,0.00,,,0.00,508.00,VWS V14.01,2013-01-23 15:43:00,
2013-01-23 10:48:00,33.2,2.8,30.29,NNW,347,3.0,7.0,27,0.00,,,0.00,519.00,VWS V14.01,2013-01-23 15:48:00,
2013-01-23 10:53:00,33.5,3.1,30.29,NNE,25,5.0,6.0,27,0.00,,,0.00,531.00,VWS V14.01,2013-01-23 15:53:00,
2013-01-23 10:58:00,33.8,3.4,30.29,North,356,2.0,4.0,27,0.00,,,0.00,299.00,VWS V14.01,2013-01-23 15:58:00,
2013-01-23 11:03:00,33.8,1.7,30.29,NW,309,0.0,0.0,25,0.00,,,0.00,543.00,VWS V14.01,2013-01-23 16:03:00,
2013-01-23 11:08:00,34.1,2.8,30.29,WNW,293,0.0,0.0,26,0.00,,,0.00,548.00,VWS V14.01,2013-01-23 16:08:00,
2013-01-23 11:13:00,34.7,4.2,30.29,WNW,282,5.0,6.0,27,0.00,,,0.00,554.00,VWS V14.01,2013-01-23 16:13:00,
2013-01-23 11:18:00,35.0,2.8,30.27,North,358,5.0,9.0,25,0.00,,,0.00,559.00,VWS V14.01,2013-01-23 16:18:00,
2013-01-23 11:23:00,35.0,2.8,30.27,NNW,330,3.0,4.0,25,0.00,,,0.00,566.00,VWS V14.01,2013-01-23 16:23:00,
2013-01-23 11:28:00,35.0,2.8,30.27,WSW,255,0.0,0.0,25,0.00,,,0.00,571.00,VWS V14.01,2013-01-23 16:28:00,
2013-01-23 11:33:00,35.5,3.2,30.27,SW,230,0.0,0.0,25,0.00,,,0.00,578.00,VWS V14.01,2013-01-23 16:33:00,
2013-01-23 11:38:00,35.3,2.1,30.27,WNW,292,3.0,3.0,24,0.00,,,0.00,585.00,VWS V14.01,2013-01-23 16:38:00,
2013-01-23 11:43:00,35.5,2.3,30.27,WSW,257,2.0,2.0,24,0.00,,,0.00,587.00,VWS V14.01,2013-01-23 16:43:00,
2013-01-23 11:48:00,35.5,3.2,30.25,WNW,290,3.0,3.0,25,0.00,,,0.00,592.00,VWS V14.01,2013-01-23 16:48:00,
2013-01-23 11:53:00,35.8,2.5,30.25,NNW,335,2.0,2.0,24,0.00,,,0.00,598.00,VWS V14.01,2013-01-23 16:53:00,
2013-01-23 11:58:00,36.3,3.9,30.25,West,275,4.0,10.0,25,0.00,,,0.00,596.00,VWS V14.01,2013-01-23 16:58:00,
2013-01-23 12:03:00,36.8,3.4,30.24,West,262,2.0,2.0,24,0.00,,,0.00,603.00,VWS V14.01,2013-01-23 17:03:00,
2013-01-23 12:08:00,36.9,3.5,30.24,WNW,287,3.0,3.0,24,0.00,,,0.00,613.00,VWS V14.01,2013-01-23 17:08:00,
2013-01-23 12:13:00,36.9,3.5,30.24,WNW,284,0.0,5.0,24,0.00,,,0.00,606.00,VWS V14.01,2013-01-23 17:13:00,
2013-01-23 12:18:00,37.0,3.6,30.23,WNW,285,5.0,5.0,24,0.00,,,0.00,605.00,VWS V14.01,2013-01-23 17:18:00,
2013-01-23 12:23:00,37.0,3.6,30.23,WNW,301,5.0,7.0,24,0.00,,,0.00,580.00,VWS V14.01,2013-01-23 17:23:00,
2013-01-23 12:28:00,37.0,4.5,30.23,NW,309,2.0,3.0,25,0.00,,,0.00,608.00,VWS V14.01,2013-01-23 17:28:00,
2013-01-23 12:33:00,37.3,3.8,30.21,NW,314,4.0,5.0,24,0.00,,,0.00,608.00,VWS V14.01,2013-01-23 17:33:00,
2013-01-23 12:38:00,37.9,5.2,30.21,North,358,10.0,10.0,25,0.00,,,0.00,612.00,VWS V14.01,2013-01-23 17:38:00,
2013-01-23 12:43:00,38.3,4.7,30.21,WNW,284,2.0,2.0,24,0.00,,,0.00,603.00,VWS V14.01,2013-01-23 17:43:00,
2013-01-23 12:48:00,38.3,4.7,30.20,West,266,9.0,11.0,24,0.00,,,0.00,605.00,VWS V14.01,2013-01-23 17:48:00,
2013-01-23 12:53:00,38.0,5.3,30.20,WSW,240,6.0,6.0,25,0.00,,,0.00,605.00,VWS V14.01,2013-01-23 17:53:00,
2013-01-23 12:58:00,38.0,4.4,30.20,WSW,254,5.0,5.0,24,0.00,,,0.00,601.00,VWS V14.01,2013-01-23 17:58:00,
2013-01-23 13:03:00,38.3,4.7,30.19,NW,319,1.0,1.0,24,0.00,,,0.00,598.00,VWS V14.01,2013-01-23 18:03:00,
2013-01-23 13:08:00,38.5,5.8,30.19,West,269,1.0,1.0,25,0.00,,,0.00,598.00,VWS V14.01,2013-01-23 18:08:00,
2013-01-23 13:13:00,38.6,4.9,30.19,NW,326,0.0,0.0,24,0.00,,,0.00,601.00,VWS V14.01,2013-01-23 18:13:00,
2013-01-23 13:18:00,38.9,6.1,30.18,WNW,283,6.0,6.0,25,0.00,,,0.00,564.00,VWS V14.01,2013-01-23 18:18:00,
2013-01-23 13:23:00,39.2,6.3,30.18,WSW,243,10.0,11.0,25,0.00,,,0.00,570.00,VWS V14.01,2013-01-23 18:23:00,
2013-01-23 13:28:00,39.2,7.2,30.18,West,273,2.0,7.0,26,0.00,,,0.00,587.00,VWS V14.01,2013-01-23 18:28:00,
2013-01-23 13:33:00,39.5,6.6,30.17,North,352,5.0,7.0,25,0.00,,,0.00,547.00,VWS V14.01,2013-01-23 18:33:00,
2013-01-23 13:38:00,39.8,6.0,30.17,West,259,10.0,13.0,24,0.00,,,0.00,510.00,VWS V14.01,2013-01-23 18:38:00,
2013-01-23 13:43:00,39.6,6.7,30.17,NW,314,0.0,0.0,25,0.00,,,0.00,578.00,VWS V14.01,2013-01-23 18:43:00,
2013-01-23 13:48:00,39.9,6.9,30.16,West,269,13.0,15.0,25,0.00,,,0.00,490.00,VWS V14.01,2013-01-23 18:48:00,
2013-01-23 13:53:00,39.9,6.9,30.16,West,276,9.0,9.0,25,0.00,,,0.00,476.00,VWS V14.01,2013-01-23 18:53:00,
2013-01-23 13:58:00,39.9,6.9,30.16,NNW,331,1.0,7.0,25,0.00,,,0.00,413.00,VWS V14.01,2013-01-23 18:58:00,
2013-01-23 14:03:00,40.1,7.1,30.16,NW,325,9.0,13.0,25,0.00,,,0.00,520.00,VWS V14.01,2013-01-23 19:03:00,
2013-01-23 14:08:00,40.3,7.3,30.16,WNW,292,3.0,4.0,25,0.00,,,0.00,555.00,VWS V14.01,2013-01-23 19:08:00,
2013-01-23 14:13:00,40.6,7.6,30.16,West,275,9.0,9.0,25,0.00,,,0.00,253.00,VWS V14.01,2013-01-23 19:13:00,
2013-01-23 14:18:00,40.3,9.0,30.15,West,278,3.0,7.0,27,0.00,,,0.00,390.00,VWS V14.01,2013-01-23 19:18:00,
2013-01-23 14:23:00,40.6,8.4,30.15,West,260,7.0,9.0,26,0.00,,,0.00,466.00,VWS V14.01,2013-01-23 19:23:00,
2013-01-23 14:28:00,40.6,8.4,30.15,West,269,5.0,7.0,26,0.00,,,0.00,450.00,VWS V14.01,2013-01-23 19:28:00,
2013-01-23 14:33:00,40.8,7.7,30.15,SW,219,0.0,8.0,25,0.00,,,0.00,394.00,VWS V14.01,2013-01-23 19:33:00,
2013-01-23 14:38:00,40.6,8.4,30.15,WSW,239,3.0,9.0,26,0.00,,,0.00,392.00,VWS V14.01,2013-01-23 19:38:00,
2013-01-23 14:43:00,40.8,8.6,30.15,WNW,285,13.0,17.0,26,0.00,,,0.00,292.00,VWS V14.01,2013-01-23 19:43:00,
2013-01-23 14:48:00,40.3,8.1,30.14,West,259,8.0,9.0,26,0.00,,,0.00,160.00,VWS V14.01,2013-01-23 19:48:00,
2013-01-23 14:53:00,39.9,8.6,30.14,WSW,252,3.0,6.0,27,0.00,,,0.00,148.00,VWS V14.01,2013-01-23 19:53:00,
2013-01-23 14:58:00,39.5,8.3,30.14,West,272,1.0,6.0,27,0.00,,,0.00,144.00,VWS V14.01,2013-01-23 19:58:00,
2013-01-23 15:03:00,39.2,8.9,30.14,West,280,0.0,7.0,28,0.00,,,0.00,207.00,VWS V14.01,2013-01-23 20:03:00,
2013-01-23 15:08:00,39.2,8.9,30.14,WSW,240,9.0,14.0,28,0.00,,,0.00,185.00,VWS V14.01,2013-01-23 20:08:00,
2013-01-23 15:13:00,39.5,8.3,30.14,NW,310,4.0,9.0,27,0.00,,,0.00,213.00,VWS V14.01,2013-01-23 20:13:00,
2013-01-23 15:18:00,39.9,9.4,30.13,West,259,8.0,9.0,28,0.00,,,0.00,452.00,VWS V14.01,2013-01-23 20:18:00,
2013-01-23 15:23:00,40.2,9.7,30.13,WSW,247,7.0,11.0,28,0.00,,,0.00,450.00,VWS V14.01,2013-01-23 20:23:00,
2013-01-23 15:28:00,40.5,10.0,30.13,WNW,285,2.0,5.0,28,0.00,,,0.00,190.00,VWS V14.01,2013-01-23 20:28:00,
2013-01-23 15:33:00,40.5,10.0,30.13,WSW,252,3.0,3.0,28,0.00,,,0.00,163.00,VWS V14.01,2013-01-23 20:33:00,
2013-01-23 15:38:00,40.5,10.0,30.13,WNW,283,0.0,6.0,28,0.00,,,0.00,160.00,VWS V14.01,2013-01-23 20:38:00,
2013-01-23 15:43:00,40.6,9.2,30.13,West,271,0.0,5.0,27,0.00,,,0.00,207.00,VWS V14.01,2013-01-23 20:43:00,
2013-01-23 15:48:00,40.9,9.5,30.12,West,280,4.0,14.0,27,0.00,,,0.00,162.00,VWS V14.01,2013-01-23 20:48:00,
2013-01-23 15:53:00,41.3,9.9,30.12,WSW,257,0.0,4.0,27,0.00,,,0.00,98.00,VWS V14.01,2013-01-23 20:53:00,
2013-01-23 15:58:00,41.2,9.8,30.12,West,263,11.0,16.0,27,0.00,,,0.00,69.00,VWS V14.01,2013-01-23 20:58:00,
2013-01-23 16:03:00,40.9,10.3,30.12,SW,235,3.0,6.0,28,0.00,,,0.00,83.00,VWS V14.01,2013-01-23 21:03:00,
2013-01-23 16:08:00,40.8,9.4,30.12,South,189,3.0,3.0,27,0.00,,,0.00,51.00,VWS V14.01,2013-01-23 21:08:00,
2013-01-23 16:13:00,40.6,10.1,30.12,West,260,7.0,8.0,28,0.00,,,0.00,49.00,VWS V14.01,2013-01-23 21:13:00,
2013-01-23 16:18:00,40.5,10.0,30.11,WSW,248,4.0,6.0,28,0.00,,,0.00,47.00,VWS V14.01,2013-01-23 21:18:00,
2013-01-23 16:23:00,40.3,9.8,30.11,SW,217,1.0,7.0,28,0.00,,,0.00,44.00,VWS V14.01,2013-01-23 21:23:00,
2013-01-23 16:28:00,40.2,8.9,30.11,West,259,6.0,13.0,27,0.00,,,0.00,40.00,VWS V14.01,2013-01-23 21:28:00,
2013-01-23 16:33:00,39.9,8.6,30.11,WSW,247,6.0,11.0,27,0.00,,,0.00,37.00,VWS V14.01,2013-01-23 21:33:00,
2013-01-23 16:38:00,39.8,9.4,30.11,WSW,248,2.0,8.0,28,0.00,,,0.00,32.00,VWS V14.01,2013-01-23 21:38:00,
2013-01-23 16:43:00,39.6,9.2,30.11,WSW,248,0.0,6.0,28,0.00,,,0.00,28.00,VWS V14.01,2013-01-23 21:43:00,
2013-01-23 16:48:00,39.5,9.9,30.12,West,268,0.0,0.0,29,0.00,,,0.00,25.00,VWS V14.01,2013-01-23 21:48:00,
2013-01-23 16:53:00,39.3,9.7,30.12,West,260,0.0,1.0,29,0.00,,,0.00,21.00,VWS V14.01,2013-01-23 21:53:00,
2013-01-23 16:58:00,39.2,9.6,30.12,West,264,2.0,10.0,29,0.00,,,0.00,21.00,VWS V14.01,2013-01-23 21:58:00,
2013-01-23 17:03:00,39.1,10.3,30.12,West,280,0.0,3.0,30,0.00,,,0.00,18.00,VWS V14.01,2013-01-23 22:03:00,
2013-01-23 17:08:00,38.9,10.1,30.12,WSW,238,4.0,5.0,30,0.00,,,0.00,16.00,VWS V14.01,2013-01-23 22:08:00,
2013-01-23 17:13:00,38.9,10.1,30.12,West,259,0.0,4.0,30,0.00,,,0.00,9.00,VWS V14.01,2013-01-23 22:13:00,
2013-01-23 17:18:00,38.8,10.0,30.12,West,269,1.0,7.0,30,0.00,,,0.00,7.00,VWS V14.01,2013-01-23 22:18:00,
2013-01-23 17:23:00,38.6,9.9,30.12,WSW,257,3.0,4.0,30,0.00,,,0.00,7.00,VWS V14.01,2013-01-23 22:23:00,
2013-01-23 17:28:00,38.5,10.5,30.12,WSW,255,0.0,0.0,31,0.00,,,0.00,5.00,VWS V14.01,2013-01-23 22:28:00,
2013-01-23 17:33:00,38.2,10.2,30.12,WSW,251,3.0,4.0,31,0.00,,,0.00,0.00,VWS V14.01,2013-01-23 22:33:00,
2013-01-23 17:38:00,37.9,10.0,30.12,WSW,251,0.0,0.0,31,0.00,,,0.00,0.00,VWS V14.01,2013-01-23 22:38:00,
2013-01-23 17:43:00,37.6,11.1,30.12,WSW,251,0.0,0.0,33,0.00,,,0.00,0.00,VWS V14.01,2013-01-23 22:43:00,
2013-01-23 17:48:00,37.2,11.4,30.12,WSW,251,0.0,0.0,34,0.00,,,0.00,0.00,VWS V14.01,2013-01-23 22:48:00,
2013-01-23 17:53:00,36.8,11.7,30.12,WSW,251,0.0,0.0,35,0.00,,,0.00,0.00,VWS V14.01,2013-01-23 22:53:00,
2013-01-23 17:58:00,36.2,11.2,30.12,WSW,251,0.0,0.0,35,0.00,,,0.00,0.00,VWS V14.01,2013-01-23 22:58:00,
2013-01-23 18:03:00,35.8,12.1,30.12,WSW,251,0.0,0.0,37,0.00,,,0.00,0.00,VWS V14.01,2013-01-23 23:03:00,
2013-01-23 18:08:00,35.2,12.1,30.12,WSW,251,0.0,0.0,38,0.00,,,0.00,0.00,VWS V14.01,2013-01-23 23:08:00,
2013-01-23 18:13:00,34.4,12.0,30.12,WSW,251,0.0,0.0,39,0.00,,,0.00,0.00,VWS V14.01,2013-01-23 23:13:00,
2013-01-23 18:18:00,33.8,12.1,30.11,WSW,251,0.0,0.0,40,0.00,,,0.00,0.00,VWS V14.01,2013-01-23 23:18:00,
2013-01-23 18:23:00,33.5,12.3,30.11,WSW,251,0.0,0.0,41,0.00,,,0.00,0.00,VWS V14.01,2013-01-23 23:23:00,
2013-01-23 18:28:00,33.1,12.5,30.11,WSW,251,0.0,0.0,42,0.00,,,0.00,0.00,VWS V14.01,2013-01-23 23:28:00,
2013-01-23 18:33:00,32.5,12.5,30.11,WSW,251,0.0,0.0,43,0.00,,,0.00,0.00,VWS V14.01,2013-01-23 23:33:00,
2013-01-23 18:38:00,32.1,12.7,30.11,WSW,251,0.0,0.0,44,0.00,,,0.00,0.00,VWS V14.01,2013-01-23 23:38:00,
2013-01-23 18:43:00,31.6,12.7,30.11,WSW,251,0.0,0.0,45,0.00,,,0.00,0.00,VWS V14.01,2013-01-23 23:43:00,
2013-01-23 18:48:00,31.0,13.6,30.10,WSW,251,0.0,0.0,48,0.00,,,0.00,0.00,VWS V14.01,2013-01-23 23:48:00,
2013-01-23 18:53:00,30.6,13.7,30.10,WSW,251,0.0,0.0,49,0.00,,,0.00,0.00,VWS V14.01,2013-01-23 23:53:00,
2013-01-23 18:58:00,30.3,13.9,30.10,WSW,251,0.0,0.0,50,0.00,,,0.00,0.00,VWS V14.01,2013-01-23 23:58:00,
2013-01-23 19:03:00,29.8,13.9,30.10,WSW,251,0.0,0.0,51,0.00,,,0.00,0.00,VWS V14.01,2013-01-24 00:03:00,
2013-01-23 19:08:00,29.5,14.1,30.10,WSW,251,0.0,0.0,52,0.00,,,0.00,0.00,VWS V14.01,2013-01-24 00:08:00,
2013-01-23 19:13:00,29.4,14.4,30.10,WSW,251,0.0,0.0,53,0.00,,,0.00,0.00,VWS V14.01,2013-01-24 00:13:00,
2013-01-23 19:18:00,29.1,14.5,30.09,WSW,251,0.0,0.0,54,0.00,,,0.00,0.00,VWS V14.01,2013-01-24 00:18:00,
2013-01-23 19:23:00,29.0,14.9,30.09,WSW,251,0.0,0.0,55,0.00,,,0.00,0.00,VWS V14.01,2013-01-24 00:23:00,
2013-01-23 19:28:00,28.8,14.7,30.09,WSW,251,0.0,0.0,55,0.00,,,0.00,0.00,VWS V14.01,2013-01-24 00:28:00,
2013-01-23 19:33:00,28.5,14.4,30.09,WSW,251,0.0,0.0,55,0.00,,,0.00,0.00,VWS V14.01,2013-01-24 00:33:00,
2013-01-23 19:38:00,28.2,14.1,30.09,WSW,251,0.0,0.0,55,0.00,,,0.00,0.00,VWS V14.01,2013-01-24 00:38:00,
2013-01-23 19:43:00,27.9,14.2,30.09,WSW,251,0.0,0.0,56,0.00,,,0.00,0.00,VWS V14.01,2013-01-24 00:43:00,
2013-01-23 19:48:00,27.8,14.6,30.09,WSW,251,0.0,0.0,57,0.00,,,0.00,0.00,VWS V14.01,2013-01-24 00:48:00,
2013-01-23 19:53:00,27.5,14.7,30.09,WSW,251,0.0,0.0,58,0.00,,,0.00,0.00,VWS V14.01,2013-01-24 00:53:00,
2013-01-23 19:58:00,27.3,14.9,30.09,WSW,251,0.0,0.0,59,0.00,,,0.00,0.00,VWS V14.01,2013-01-24 00:58:00,
2013-01-23 20:03:00,27.0,14.6,30.08,WSW,251,0.0,0.0,59,0.00,,,0.00,0.00,VWS V14.01,2013-01-24 01:03:00,
2013-01-23 20:08:00,27.2,15.2,30.08,WSW,251,0.0,0.0,60,0.00,,,0.00,0.00,VWS V14.01,2013-01-24 01:08:00,
2013-01-23 20:13:00,27.2,15.2,30.08,WSW,251,0.0,0.0,60,0.00,,,0.00,0.00,VWS V14.01,2013-01-24 01:13:00,
2013-01-23 20:18:00,27.2,15.2,30.08,WSW,251,0.0,0.0,60,0.00,,,0.00,0.00,VWS V14.01,2013-01-24 01:18:00,
2013-01-23 20:23:00,27.0,15.4,30.08,WSW,251,0.0,0.0,61,0.00,,,0.00,0.00,VWS V14.01,2013-01-24 01:23:00,
2013-01-23 20:28:00,26.9,15.3,30.08,WSW,251,0.0,0.0,61,0.00,,,0.00,0.00,VWS V14.01,2013-01-24 01:28:00,
2013-01-23 20:33:00,26.9,15.3,30.08,WSW,251,0.0,0.0,61,0.00,,,0.00,0.00,VWS V14.01,2013-01-24 01:33:00,
2013-01-23 20:38:00,26.9,15.6,30.08,WSW,251,0.0,0.0,62,0.00,,,0.00,0.00,VWS V14.01,2013-01-24 01:38:00,
2013-01-23 20:43:00,26.9,15.6,30.08,WSW,251,0.0,0.0,62,0.00,,,0.00,0.00,VWS V14.01,2013-01-24 01:43:00,
2013-01-23 20:48:00,26.9,15.6,30.07,WSW,251,0.0,0.0,62,0.00,,,0.00,0.00,VWS V14.01,2013-01-24 01:48:00,
2013-01-23 20:53:00,26.9,15.6,30.07,WSW,251,0.0,0.0,62,0.00,,,0.00,0.00,VWS V14.01,2013-01-24 01:53:00,
2013-01-23 20:58:00,26.7,15.4,30.07,WSW,251,0.0,0.0,62,0.00,,,0.00,0.00,VWS V14.01,2013-01-24 01:58:00,
2013-01-23 21:03:00,26.6,15.4,30.07,WSW,251,0.0,0.0,62,0.00,,,0.00,0.00,VWS V14.01,2013-01-24 02:03:00,
2013-01-23 21:08:00,26.4,15.2,30.07,WSW,251,0.0,0.0,62,0.00,,,0.00,0.00,VWS V14.01,2013-01-24 02:08:00,
2013-01-23 21:13:00,26.4,15.2,30.07,WSW,251,0.0,0.0,62,0.00,,,0.00,0.00,VWS V14.01,2013-01-24 02:13:00,
2013-01-23 21:18:00,26.3,15.1,30.06,WSW,251,0.0,0.0,62,0.00,,,0.00,0.00,VWS V14.01,2013-01-24 02:18:00,
2013-01-23 21:23:00,26.1,15.2,30.06,WSW,251,0.0,0.0,63,0.00,,,0.00,0.00,VWS V14.01,2013-01-24 02:23:00,
2013-01-23 21:28:00,26.1,15.2,30.06,WSW,251,0.0,0.0,63,0.00,,,0.00,0.00,VWS V14.01,2013-01-24 02:28:00,
2013-01-23 21:33:00,26.1,15.2,30.05,WSW,251,0.0,0.0,63,0.00,,,0.00,0.00,VWS V14.01,2013-01-24 02:33:00,
2013-01-23 21:38:00,26.0,15.1,30.05,WSW,251,0.0,0.0,63,0.00,,,0.00,0.00,VWS V14.01,2013-01-24 02:38:00,
2013-01-23 21:43:00,25.8,15.0,30.05,WSW,251,0.0,0.0,63,0.00,,,0.00,0.00,VWS V14.01,2013-01-24 02:43:00,
2013-01-23 21:48:00,25.8,15.0,30.05,WSW,251,0.0,0.0,63,0.00,,,0.00,0.00,VWS V14.01,2013-01-24 02:48:00,
2013-01-23 21:53:00,25.7,14.9,30.05,WSW,251,0.0,0.0,63,0.00,,,0.00,0.00,VWS V14.01,2013-01-24 02:53:00,
2013-01-23 21:58:00,25.6,15.1,30.05,WSW,251,0.0,0.0,64,0.00,,,0.00,0.00,VWS V14.01,2013-01-24 02:58:00,
2013-01-23 22:03:00,25.6,15.1,30.04,WSW,251,0.0,0.0,64,0.00,,,0.00,0.00,VWS V14.01,2013-01-24 03:03:00,
2013-01-23 22:08:00,25.4,14.9,30.04,WSW,251,0.0,0.0,64,0.00,,,0.00,0.00,VWS V14.01,2013-01-24 03:08:00,
2013-01-23 22:13:00,25.4,14.9,30.04,WSW,251,0.0,0.0,64,0.00,,,0.00,0.00,VWS V14.01,2013-01-24 03:13:00,
2013-01-23 22:18:00,25.4,14.9,30.04,WSW,251,0.0,0.0,64,0.00,,,0.00,0.00,VWS V14.01,2013-01-24 03:18:00,
2013-01-23 22:23:00,25.3,14.8,30.04,WSW,251,0.0,0.0,64,0.00,,,0.00,0.00,VWS V14.01,2013-01-24 03:23:00,
2013-01-23 22:28:00,25.3,14.8,30.04,WSW,251,0.0,0.0,64,0.00,,,0.00,0.00,VWS V14.01,2013-01-24 03:28:00,
2013-01-23 22:33:00,25.1,14.6,30.03,WSW,251,0.0,0.0,64,0.00,,,0.00,0.00,VWS V14.01,2013-01-24 03:33:00,
2013-01-23 22:38:00,25.0,14.9,30.03,WSW,251,0.0,0.0,65,0.00,,,0.00,0.00,VWS V14.01,2013-01-24 03:38:00,
2013-01-23 22:43:00,25.0,14.9,30.03,WSW,251,0.0,0.0,65,0.00,,,0.00,0.00,VWS V14.01,2013-01-24 03:43:00,
2013-01-23 22:48:00,24.8,14.7,30.02,WSW,251,0.0,0.0,65,0.00,,,0.00,0.00,VWS V14.01,2013-01-24 03:48:00,
2013-01-23 22:53:00,24.7,15.0,30.02,WSW,251,0.0,1.0,66,0.00,,,0.00,0.00,VWS V14.01,2013-01-24 03:53:00,
2013-01-23 22:58:00,24.7,15.0,30.02,WSW,251,0.0,0.0,66,0.00,,,0.00,0.00,VWS V14.01,2013-01-24 03:58:00,
2013-01-23 23:03:00,25.0,15.3,30.01,WSW,251,0.0,0.0,66,0.00,,,0.00,0.00,VWS V14.01,2013-01-24 04:03:00,
2013-01-23 23:08:00,25.3,15.6,30.01,WSW,251,0.0,0.0,66,0.00,,,0.00,0.00,VWS V14.01,2013-01-24 04:08:00,
2013-01-23 23:13:00,25.4,15.3,30.01,WSW,251,0.0,0.0,65,0.00,,,0.00,0.00,VWS V14.01,2013-01-24 04:13:00,
2013-01-23 23:18:00,25.6,15.5,30.00,WSW,251,0.0,0.0,65,0.00,,,0.00,0.00,VWS V14.01,2013-01-24 04:18:00,
2013-01-23 23:23:00,25.4,15.3,30.00,WSW,251,0.0,0.0,65,0.00,,,0.00,0.00,VWS V14.01,2013-01-24 04:23:00,
2013-01-23 23:28:00,25.6,15.8,30.00,WSW,251,0.0,0.0,66,0.00,,,0.00,0.00,VWS V14.01,2013-01-24 04:28:00,
2013-01-23 23:33:00,25.6,15.8,29.99,WSW,251,0.0,0.0,66,0.00,,,0.00,0.00,VWS V14.01,2013-01-24 04:33:00,
2013-01-23 23:38:00,25.6,15.8,29.99,WSW,251,0.0,0.0,66,0.00,,,0.00,0.00,VWS V14.01,2013-01-24 04:38:00,
2013-01-23 23:43:00,25.7,15.9,29.99,WSW,251,0.0,0.0,66,0.00,,,0.00,0.00,VWS V14.01,2013-01-24 04:43:00,
2013-01-23 23:48:00,25.6,15.8,29.98,WSW,251,0.0,0.0,66,0.00,,,0.00,0.00,VWS V14.01,2013-01-24 04:48:00,
2013-01-23 23:53:00,25.4,15.6,29.98,WSW,251,0.0,0.0,66,0.00,,,0.00,0.00,VWS V14.01,2013-01-24 04:53:00,
2013-01-23 23:58:00,25.4,15.6,29.98,WSW,251,0.0,0.0,66,0.00,,,0.00,0.00,VWS V14.01,2013-01-24 04:58:00,